Location: Cedar Brake
(32.2526°N, 97.8459°W)
Time: 08:12:06
(UTC+00:00)

ISS - Pass Details

Date: 22 April 2026
Orbit: 414 x 424 km, 51.6° (Epoch: 15 May)

Event Time Altitude Azimuth Distance (km) Brightness Sun altitude
Exits shadow 09:41:46 18° 7° (N) 1,092 -1.2 -26.1°
Drops below altitude 10° 09:43:03 10° 23° (NNE) 1,497 -0.2 -25.9°
Sets 09:45:21 0° 35° (NE) 2,366 1.2 -25.5°
